Weather History for KGCN - April, 2014

Change the Weather History Date:

Tuesday, April 8, 2014

  Actual Average Record
Temperature  
Mean Temperature 47 °F -  
Max Temperature 71 °F 53 °F 74 °F (1988)
Min Temperature 23 °F 22 °F 14 °F (1983)
Degree Days  
Heating Degree Days 18    
Moisture  
Dew Point 14 °F    
Average Humidity 36    
Maximum Humidity 72    
Minimum Humidity 8    
Precipitation  
Precipitation 0.00 in - - ()
Sea Level Pressure  
Sea Level Pressure 30.23 in    
Wind  
Wind Speed 2 mph (NNW)    
Max Wind Speed 12 mph    
Max Gust Speed 18 mph    
Visibility 10 miles    
Events      
Averages and records for this station are not official NWS values.
T = Trace of Precipitation, MM = Missing Value Source: NWS Daily Summary

Daily Weather History Graph

Daily Weather History Graph

Search for Another Location

Airport or City:

Trip Planner

Search our weather history database for the weather conditions in past years. The results will help you decide how hot, cold, wet, or windy it might be!

Date:

Astronomy

Apr. 08, 2014 Rise Set
Actual Time 6:04 AM MST 6:56 PM MST
Civil Twilight 5:38 AM MST 7:22 PM MST
Nautical Twilight 5:08 AM MST 7:53 PM MST
Astronomical Twilight 4:36 AM MST 8:25 PM MST
Moon 1:03 PM MST (4/8) 2:09 AM MST (4/8)
Length of Visible Light 13h 43m
Length of Day
12h 51m
Waxing Gibbous, 63% of the Moon is Illuminated
Apr 8
Waxing Gibbous
Apr 15
Full
Apr 22
Last Quarter
Apr 28
New
May 6
First Quarter

Hourly Weather History & Observations

Time (MST) Temp. Windchill Dew Point Humidity Pressure Visibility Wind Dir Wind Speed Gust Speed Precip Events Conditions
12:54 AM 27.0 °F - 15.1 °F 61% 30.24 in 10.0 mi Calm Calm - N/A   Clear
1:54 AM 25.0 °F - 15.1 °F 66% 30.23 in 10.0 mi Calm Calm - N/A   Clear
2:54 AM 26.1 °F - 15.1 °F 63% 30.23 in 10.0 mi Calm Calm - N/A   Clear
3:54 AM 24.1 °F - 15.1 °F 69% 30.25 in 10.0 mi Calm Calm - N/A   Clear
4:54 AM 24.1 °F 19.7 °F 15.1 °F 69% 30.25 in 10.0 mi ENE 3.5 mph - N/A   Clear
5:54 AM 23.0 °F 18.4 °F 15.1 °F 72% 30.26 in 10.0 mi East 3.5 mph - N/A   Clear
6:54 AM 28.0 °F 24.2 °F 17.1 °F 63% 30.29 in 10.0 mi ENE 3.5 mph - N/A   Clear
7:54 AM 46.0 °F - 21.9 °F 39% 30.30 in 10.0 mi Calm Calm - N/A   Clear
8:54 AM 57.9 °F - 18.0 °F 21% 30.27 in 10.0 mi Calm Calm - N/A   Clear
9:54 AM 63.0 °F - 12.9 °F 14% 30.25 in 10.0 mi ENE 4.6 mph - N/A   Clear
10:54 AM 64.9 °F - 18.0 °F 16% 30.26 in 10.0 mi SSW 6.9 mph - N/A   Clear
11:54 AM 64.9 °F - 15.1 °F 15% 30.27 in 10.0 mi Variable 3.5 mph - N/A   Clear
12:54 PM 68.0 °F - 14.0 °F 12% 30.23 in 10.0 mi Variable 4.6 mph - N/A   Clear
1:54 PM 69.1 °F - 10.9 °F 11% 30.22 in 10.0 mi NW 6.9 mph 18.4 mph N/A   Clear
2:54 PM 71.1 °F - 12.0 °F 10% 30.18 in 10.0 mi WSW 11.5 mph 18.4 mph N/A   Clear
3:54 PM 70.0 °F - 6.1 °F 8% 30.19 in 10.0 mi West 10.4 mph - N/A   Clear
4:54 PM 68.0 °F - 9.0 °F 10% 30.19 in 10.0 mi Variable 6.9 mph - N/A   Clear
5:54 PM 68.0 °F - 10.9 °F 11% 30.19 in 10.0 mi West 4.6 mph - N/A   Clear
6:54 PM 55.0 °F - 15.1 °F 21% 30.22 in 10.0 mi North 3.5 mph - N/A   Clear
7:54 PM 43.0 °F - 15.1 °F 32% 30.21 in 10.0 mi Calm Calm - N/A   Clear
9:54 PM 35.1 °F - 14.0 °F 42% 30.18 in 10.0 mi Calm Calm - N/A   Clear
10:54 PM 32.0 °F - 14.0 °F 48% 30.18 in 10.0 mi Calm Calm - N/A   Clear
11:54 PM 30.0 °F - 12.9 °F 49% 30.19 in 10.0 mi Calm Calm - N/A   Clear